Time,TemperatureF,DewpointF,PressureIn,WindDirection,WindDirectionDegrees,WindSpeedMPH,WindSpeedGustMPH,Humidity,HourlyPrecipIn,Conditions,Clouds,dailyrainin,SoftwareType,DateUTC
2013-02-22 00:06:00,35.4,33.0,30.32,SSW,203,0.0,-999.0,92,-99.99,,,0.00,weatherlink.com 1.10,2013-02-22 05:06:00,
2013-02-22 00:21:00,35.3,34.0,30.29,NE,44,2.0,-999.0,93,-99.99,,,0.00,weatherlink.com 1.10,2013-02-22 05:21:00,
2013-02-22 00:36:00,35.7,33.0,30.30,WNW,302,2.0,-999.0,91,-99.99,,,0.00,weatherlink.com 1.10,2013-02-22 05:36:00,
2013-02-22 00:51:00,35.5,33.0,30.28,SW,222,5.0,-999.0,91,-99.99,,,0.00,weatherlink.com 1.10,2013-02-22 05:51:00,
2013-02-22 01:06:00,35.4,33.0,30.29,NE,46,4.0,-999.0,92,-99.99,,,0.00,weatherlink.com 1.10,2013-02-22 06:06:00,
2013-02-22 01:21:00,35.3,33.0,30.32,SW,233,0.0,-999.0,92,-99.99,,,0.00,weatherlink.com 1.10,2013-02-22 06:21:00,
2013-02-22 01:36:00,35.1,33.0,30.30,North,5,0.0,-999.0,93,-99.99,,,0.00,weatherlink.com 1.10,2013-02-22 06:36:00,
2013-02-22 01:51:00,34.7,33.0,30.29,NE,42,1.0,-999.0,93,-99.99,,,0.00,weatherlink.com 1.10,2013-02-22 06:51:00,
2013-02-22 02:06:00,34.6,33.0,30.26,NE,34,5.0,-999.0,92,-99.99,,,0.00,weatherlink.com 1.10,2013-02-22 07:06:00,
2013-02-22 02:21:00,34.6,33.0,30.25,North,355,9.0,-999.0,94,-99.99,,,0.00,weatherlink.com 1.10,2013-02-22 07:21:00,
2013-02-22 02:36:00,34.0,32.0,30.23,SW,217,1.0,-999.0,93,-99.99,,,0.00,weatherlink.com 1.10,2013-02-22 07:36:00,
2013-02-22 02:51:00,33.7,33.0,30.26,SSE,151,0.0,-999.0,95,-99.99,,,0.00,weatherlink.com 1.10,2013-02-22 07:51:00,
2013-02-22 03:06:00,33.4,32.0,30.20,WNW,299,1.0,-999.0,94,-99.99,,,0.00,weatherlink.com 1.10,2013-02-22 08:06:00,
2013-02-22 03:21:00,33.0,32.0,30.23,NW,309,3.0,-999.0,95,-99.99,,,0.00,weatherlink.com 1.10,2013-02-22 08:21:00,
2013-02-22 03:36:00,33.2,32.0,30.24,North,5,2.0,-999.0,95,-99.99,,,0.00,weatherlink.com 1.10,2013-02-22 08:36:00,
2013-02-22 03:51:00,32.6,31.0,30.20,ENE,65,2.0,-999.0,95,-99.99,,,0.00,weatherlink.com 1.10,2013-02-22 08:51:00,
2013-02-22 04:06:00,32.6,32.0,30.22,NE,35,5.0,-999.0,96,-99.99,,,0.00,weatherlink.com 1.10,2013-02-22 09:06:00,
2013-02-22 04:21:00,32.7,32.0,30.22,SSW,197,3.0,-999.0,96,-99.99,,,0.00,weatherlink.com 1.10,2013-02-22 09:21:00,
2013-02-22 04:36:00,32.9,32.0,30.24,NE,49,5.0,-999.0,96,-99.99,,,0.00,weatherlink.com 1.10,2013-02-22 09:36:00,
2013-02-22 04:51:00,32.0,31.0,30.22,SSE,150,2.0,-999.0,96,-99.99,,,0.00,weatherlink.com 1.10,2013-02-22 09:51:00,
2013-02-22 05:06:00,32.1,31.0,30.23,SSE,161,4.0,-999.0,96,-99.99,,,0.00,weatherlink.com 1.10,2013-02-22 10:06:00,
2013-02-22 05:21:00,32.0,31.0,30.26,SW,217,0.0,-999.0,97,-99.99,,,0.00,weatherlink.com 1.10,2013-02-22 10:21:00,
2013-02-22 05:36:00,31.9,31.0,30.26,WSW,241,0.0,-999.0,96,-99.99,,,0.00,weatherlink.com 1.10,2013-02-22 10:36:00,
2013-02-22 05:51:00,31.7,31.0,30.27,South,184,3.0,-999.0,95,-99.99,,,0.00,weatherlink.com 1.10,2013-02-22 10:51:00,
2013-02-22 06:06:00,31.7,30.0,30.26,NE,43,2.0,-999.0,94,-99.99,,,0.00,weatherlink.com 1.10,2013-02-22 11:06:00,
2013-02-22 06:21:00,31.3,30.0,30.26,NW,319,1.0,-999.0,94,-99.99,,,0.00,weatherlink.com 1.10,2013-02-22 11:21:00,
2013-02-22 06:36:00,31.4,30.0,30.27,WNW,284,4.0,-999.0,95,-99.99,,,0.00,weatherlink.com 1.10,2013-02-22 11:36:00,
2013-02-22 06:51:00,31.1,30.0,30.25,WNW,290,2.0,-999.0,95,-99.99,,,0.00,weatherlink.com 1.10,2013-02-22 11:51:00,
2013-02-22 07:06:00,31.4,30.0,30.25,WSW,239,3.0,-999.0,95,-99.99,,,0.00,weatherlink.com 1.10,2013-02-22 12:06:00,
2013-02-22 07:21:00,31.6,31.0,30.25,SW,225,0.0,-999.0,96,-99.99,,,0.00,weatherlink.com 1.10,2013-02-22 12:21:00,
2013-02-22 07:36:00,31.4,30.0,30.26,SW,229,2.0,-999.0,96,-99.99,,,0.00,weatherlink.com 1.10,2013-02-22 12:36:00,
2013-02-22 07:51:00,31.3,30.0,30.28,SW,227,0.0,-999.0,96,-99.99,,,0.00,weatherlink.com 1.10,2013-02-22 12:51:00,
2013-02-22 08:06:00,31.1,30.0,30.26,NE,38,5.0,-999.0,96,-99.99,,,0.00,weatherlink.com 1.10,2013-02-22 13:06:00,
2013-02-22 08:21:00,30.9,30.0,30.28,NNE,22,3.0,-999.0,96,-99.99,,,0.00,weatherlink.com 1.10,2013-02-22 13:21:00,
2013-02-22 08:36:00,31.2,30.0,30.28,North,350,1.0,-999.0,96,-99.99,,,0.00,weatherlink.com 1.10,2013-02-22 13:36:00,
2013-02-22 08:51:00,31.3,30.0,30.28,NNE,24,0.0,-999.0,96,-99.99,,,0.00,weatherlink.com 1.10,2013-02-22 13:51:00,
2013-02-22 09:06:00,31.4,30.0,30.29,SSW,205,0.0,-999.0,96,-99.99,,,0.00,weatherlink.com 1.10,2013-02-22 14:06:00,
2013-02-22 09:21:00,31.3,30.0,30.29,SSW,205,2.0,-999.0,96,-99.99,,,0.00,weatherlink.com 1.10,2013-02-22 14:21:00,
2013-02-22 09:36:00,31.6,31.0,30.28,SSW,207,0.0,-999.0,97,-99.99,,,0.00,weatherlink.com 1.10,2013-02-22 14:36:00,
2013-02-22 09:51:00,31.5,31.0,30.28,SSW,207,2.0,-999.0,97,-99.99,,,0.00,weatherlink.com 1.10,2013-02-22 14:51:00,
2013-02-22 10:06:00,31.7,31.0,30.28,SW,233,0.0,-999.0,97,-99.99,,,0.00,weatherlink.com 1.10,2013-02-22 15:06:00,
2013-02-22 10:21:00,31.8,31.0,30.29,South,186,0.0,-999.0,97,-99.99,,,0.00,weatherlink.com 1.10,2013-02-22 15:21:00,
2013-02-22 10:36:00,32.6,32.0,30.27,South,186,2.0,-999.0,98,-99.99,,,0.00,weatherlink.com 1.10,2013-02-22 15:36:00,
2013-02-22 10:51:00,32.3,32.0,30.27,North,360,0.0,-999.0,97,-99.99,,,0.00,weatherlink.com 1.10,2013-02-22 15:51:00,
2013-02-22 11:06:00,33.7,33.0,30.26,NNE,21,4.0,-999.0,98,-99.99,,,0.00,weatherlink.com 1.10,2013-02-22 16:06:00,
2013-02-22 11:21:00,32.6,32.0,30.27,NNE,21,1.0,-999.0,97,-99.99,,,0.00,weatherlink.com 1.10,2013-02-22 16:21:00,
2013-02-22 11:36:00,32.5,32.0,30.27,NNE,33,0.0,-999.0,97,-99.99,,,0.00,weatherlink.com 1.10,2013-02-22 16:36:00,
2013-02-22 11:51:00,33.5,33.0,30.27,NE,49,0.0,-999.0,98,-99.99,,,0.00,weatherlink.com 1.10,2013-02-22 16:51:00,
2013-02-22 12:06:00,33.9,33.0,30.27,South,175,1.0,-999.0,98,-99.99,,,0.00,weatherlink.com 1.10,2013-02-22 17:06:00,
2013-02-22 12:22:00,35.1,35.0,30.28,South,180,0.0,-999.0,98,-99.99,,,0.00,weatherlink.com 1.10,2013-02-22 17:22:00,
2013-02-22 12:36:00,36.8,36.0,30.27,ENE,67,0.0,-999.0,98,-99.99,,,0.00,weatherlink.com 1.10,2013-02-22 17:36:00,
2013-02-22 12:51:00,37.0,37.0,30.27,WSW,255,0.0,-999.0,98,-99.99,,,0.00,weatherlink.com 1.10,2013-02-22 17:51:00,
2013-02-22 13:06:00,38.2,38.0,30.27,NNE,30,0.0,-999.0,98,-99.99,,,0.00,weatherlink.com 1.10,2013-02-22 18:06:00,
2013-02-22 13:21:00,37.4,37.0,30.26,SSW,199,0.0,-999.0,98,-99.99,,,0.00,weatherlink.com 1.10,2013-02-22 18:21:00,
2013-02-22 13:36:00,37.9,37.0,30.26,SW,228,3.0,-999.0,98,-99.99,,,0.00,weatherlink.com 1.10,2013-02-22 18:36:00,
2013-02-22 13:51:00,38.4,38.0,30.25,East,82,2.0,-999.0,98,-99.99,,,0.00,weatherlink.com 1.10,2013-02-22 18:51:00,
2013-02-22 14:06:00,38.5,38.0,30.25,WNW,296,0.0,-999.0,98,-99.99,,,0.00,weatherlink.com 1.10,2013-02-22 19:06:00,
2013-02-22 14:21:00,37.9,37.0,30.25,North,355,0.0,-999.0,98,-99.99,,,0.00,weatherlink.com 1.10,2013-02-22 19:21:00,
2013-02-22 14:36:00,38.4,38.0,30.24,North,355,1.0,-999.0,98,-99.99,,,0.00,weatherlink.com 1.10,2013-02-22 19:36:00,
2013-02-22 14:51:00,37.8,37.0,30.24,North,5,0.0,-999.0,98,-99.99,,,0.00,weatherlink.com 1.10,2013-02-22 19:51:00,
2013-02-22 15:06:00,38.3,38.0,30.24,North,5,0.0,-999.0,98,-99.99,,,0.00,weatherlink.com 1.10,2013-02-22 20:06:00,
2013-02-22 15:21:00,38.6,38.0,30.24,North,5,0.0,-999.0,98,-99.99,,,0.00,weatherlink.com 1.10,2013-02-22 20:21:00,
2013-02-22 15:36:00,38.6,38.0,30.24,North,5,0.0,-999.0,98,-99.99,,,0.00,weatherlink.com 1.10,2013-02-22 20:36:00,
2013-02-22 15:51:00,38.6,38.0,30.24,North,5,0.0,-999.0,98,-99.99,,,0.00,weatherlink.com 1.10,2013-02-22 20:51:00,
2013-02-22 16:06:00,38.5,38.0,30.23,North,5,2.0,-999.0,98,-99.99,,,0.00,weatherlink.com 1.10,2013-02-22 21:06:00,
2013-02-22 16:21:00,38.7,38.0,30.23,North,5,0.0,-999.0,98,-99.99,,,0.00,weatherlink.com 1.10,2013-02-22 21:21:00,
2013-02-22 16:36:00,38.8,38.0,30.22,North,5,0.0,-999.0,98,-99.99,,,0.00,weatherlink.com 1.10,2013-02-22 21:36:00,
2013-02-22 16:51:00,38.7,38.0,30.23,NNE,15,0.0,-999.0,98,-99.99,,,0.00,weatherlink.com 1.10,2013-02-22 21:51:00,
2013-02-22 17:06:00,39.3,39.0,30.21,NNE,15,0.0,-999.0,98,-99.99,,,0.00,weatherlink.com 1.10,2013-02-22 22:06:00,
2013-02-22 17:21:00,38.9,38.0,30.21,NNE,15,0.0,-999.0,98,-99.99,,,0.00,weatherlink.com 1.10,2013-02-22 22:21:00,
2013-02-22 17:36:00,39.3,39.0,30.22,NNE,15,0.0,-999.0,98,-99.99,,,0.00,weatherlink.com 1.10,2013-02-22 22:36:00,
2013-02-22 17:51:00,38.8,38.0,30.24,NNE,15,0.0,-999.0,98,-99.99,,,0.00,weatherlink.com 1.10,2013-02-22 22:51:00,
2013-02-22 18:06:00,39.0,39.0,30.24,NNE,15,0.0,-999.0,98,-99.99,,,0.00,weatherlink.com 1.10,2013-02-22 23:06:00,
2013-02-22 18:21:00,39.1,39.0,30.23,East,85,0.0,-999.0,98,-99.99,,,0.00,weatherlink.com 1.10,2013-02-22 23:21:00,
2013-02-22 18:36:00,39.8,39.0,30.23,East,85,1.0,-999.0,98,-99.99,,,0.00,weatherlink.com 1.10,2013-02-22 23:36:00,
2013-02-22 18:51:00,40.3,40.0,30.24,ESE,115,0.0,-999.0,99,-99.99,,,0.00,weatherlink.com 1.10,2013-02-22 23:51:00,
2013-02-22 19:06:00,41.4,41.0,30.24,ESE,115,0.0,-999.0,99,-99.99,,,0.00,weatherlink.com 1.10,2013-02-23 00:06:00,
2013-02-22 19:21:00,42.7,43.0,30.24,ESE,115,0.0,-999.0,99,-99.99,,,0.00,weatherlink.com 1.10,2013-02-23 00:21:00,
2013-02-22 19:36:00,42.2,42.0,30.25,ESE,115,0.0,-999.0,99,-99.99,,,0.00,weatherlink.com 1.10,2013-02-23 00:36:00,
2013-02-22 19:51:00,41.9,42.0,30.25,ESE,115,0.0,-999.0,99,-99.99,,,0.00,weatherlink.com 1.10,2013-02-23 00:51:00,
2013-02-22 20:06:00,41.6,41.0,30.26,ESE,115,0.0,-999.0,99,-99.99,,,0.00,weatherlink.com 1.10,2013-02-23 01:06:00,
2013-02-22 20:21:00,41.3,41.0,30.27,SE,132,0.0,-999.0,98,-99.99,,,0.00,weatherlink.com 1.10,2013-02-23 01:21:00,
2013-02-22 20:36:00,43.2,43.0,30.25,SSW,196,2.0,-999.0,99,-99.99,,,0.00,weatherlink.com 1.10,2013-02-23 01:36:00,
2013-02-22 20:51:00,43.8,44.0,30.26,SSW,205,2.0,-999.0,99,-99.99,,,0.00,weatherlink.com 1.10,2013-02-23 01:51:00,
2013-02-22 21:06:00,44.1,44.0,30.25,SW,216,2.0,-999.0,99,-99.99,,,0.00,weatherlink.com 1.10,2013-02-23 02:06:00,
2013-02-22 21:21:00,44.9,45.0,30.23,SW,216,2.0,-999.0,99,-99.99,,,0.00,weatherlink.com 1.10,2013-02-23 02:21:00,
2013-02-22 21:36:00,47.4,47.0,30.21,SSE,157,4.0,-999.0,99,-99.99,,,0.00,weatherlink.com 1.10,2013-02-23 02:36:00,
2013-02-22 21:51:00,46.4,46.0,30.22,SSW,192,6.0,-999.0,99,-99.99,,,0.00,weatherlink.com 1.10,2013-02-23 02:51:00,
2013-02-22 22:06:00,46.0,46.0,30.22,SSW,211,1.0,-999.0,99,-99.99,,,0.00,weatherlink.com 1.10,2013-02-23 03:06:00,
2013-02-22 22:21:00,46.3,46.0,30.21,SSW,201,1.0,-999.0,99,-99.99,,,0.00,weatherlink.com 1.10,2013-02-23 03:21:00,
2013-02-22 22:36:00,46.3,46.0,30.22,SSW,197,0.0,-999.0,98,-99.99,,,0.00,weatherlink.com 1.10,2013-02-23 03:36:00,
2013-02-22 22:51:00,41.5,41.0,30.25,West,281,6.0,-999.0,97,-99.99,,,0.00,weatherlink.com 1.10,2013-02-23 03:51:00,
2013-02-22 23:06:00,41.8,41.0,30.27,West,279,0.0,-999.0,98,-99.99,,,0.00,weatherlink.com 1.10,2013-02-23 04:06:00,
2013-02-22 23:21:00,44.7,44.0,30.25,SSW,205,3.0,-999.0,98,-99.99,,,0.00,weatherlink.com 1.10,2013-02-23 04:21:00,
2013-02-22 23:36:00,46.5,46.0,30.23,SW,223,2.0,-999.0,98,-99.99,,,0.00,weatherlink.com 1.10,2013-02-23 04:36:00,
2013-02-22 23:51:00,47.7,47.0,30.23,SSE,153,2.0,-999.0,98,-99.99,,,0.00,weatherlink.com 1.10,2013-02-23 04:51:00,